Dades meteomassalio
Diari Summary for Juny 2, 2017 Units:  Metric    English   Both
« Previous Day
Next Day »
Diari Semanal Mensual Anual Personalitzat
  Maxima: Minima: Mijana:
Temperatura: 32.5 °C 15.8 °C 22.3 °C
Rosada: 17.9 °C 13.3 °C 15.5 °C
Humitat: 90 % 34 % 68 %
Velocitat del vent: 38.9 km/h 0.0 km/h 5.6 km/h
Racha vent: 38.9 km/h - -
Vent:- - SSE
Pressio: 1017.5 hPa 1013.4 hPa -
Pluja: 7.1 mm    
Historical Graphs
 
 
Tabular Data for Juny 2, 2017
Time Temperature Dew Point Pressure Wind Wind Speed Wind Gust Humidity Rainfall Rate (Hourly) solar Conditions
00:04 20.8 °C 14.7 °C 1017.2 hPa Calm     68 % 0.0 mm 0.0 W/m2 CLR
00:09 20.7 °C 14.6 °C 1017.2 hPa Calm     68 % 0.0 mm 0.0 W/m2 CLR
00:14 20.6 °C 14.5 °C 1017.2 hPa Calm     68 % 0.0 mm 0.0 W/m2 CLR
00:19 20.5 °C 14.4 °C 1016.8 hPa Calm     68 % 0.0 mm 0.0 W/m2 CLR
00:24 20.4 °C 14.6 °C 1016.8 hPa Calm     69 % 0.0 mm 0.0 W/m2 CLR
00:29 20.4 °C 14.5 °C 1017.2 hPa Calm     69 % 0.0 mm 0.0 W/m2 CLR
00:34 20.4 °C 14.5 °C 1017.2 hPa Calm     69 % 0.0 mm 0.0 W/m2 CLR
00:39 20.3 °C 14.4 °C 1017.2 hPa Calm     69 % 0.0 mm 0.0 W/m2 CLR
00:44 20.2 °C 14.6 °C 1017.2 hPa Calm     70 % 0.0 mm 0.0 W/m2 CLR
00:49 20.1 °C 14.7 °C 1017.2 hPa Calm     71 % 0.0 mm 0.0 W/m2 CLR
00:50 20.1 °C 14.7 °C 1017.2 hPa Calm     71 % 0.0 mm 0.0 W/m2 CLR
00:55 20.0 °C 14.8 °C 1017.2 hPa Calm     72 % 0.0 mm 0.0 W/m2 CLR
00:56 20.0 °C 14.8 °C 1017.2 hPa Calm     72 % 0.0 mm 0.0 W/m2 CLR
01:01 19.9 °C 14.9 °C 1017.2 hPa ESE 5.6 km/h 5.6 km/h 73 % 0.0 mm 0.0 W/m2 CLR
01:06 19.8 °C 14.8 °C 1017.2 hPa ESE 8.0 km/h 8.0 km/h 73 % 0.0 mm 0.0 W/m2 CLR
01:11 19.7 °C 14.9 °C 1017.2 hPa Calm     74 % 0.0 mm 0.0 W/m2 CLR
01:16 19.7 °C 14.9 °C 1017.2 hPa Calm     74 % 0.0 mm 0.0 W/m2 CLR
01:21 19.6 °C 14.8 °C 1017.2 hPa Calm     74 % 0.0 mm 0.0 W/m2 CLR
01:26 19.5 °C 14.7 °C 1017.2 hPa Calm     74 % 0.0 mm 0.0 W/m2 CLR
01:31 19.5 °C 14.7 °C 1017.2 hPa Calm     74 % 0.0 mm 0.0 W/m2 CLR
01:36 19.5 °C 14.7 °C 1017.2 hPa Calm     74 % 0.0 mm 0.0 W/m2 CLR
01:41 19.4 °C 14.7 °C 1017.2 hPa Calm     74 % 0.0 mm 0.0 W/m2 CLR
01:46 19.3 °C 14.6 °C 1017.2 hPa Calm     74 % 0.0 mm 0.0 W/m2 CLR
01:51 19.3 °C 14.8 °C 1016.8 hPa ESE 7.4 km/h 7.4 km/h 75 % 0.0 mm 0.0 W/m2 CLR
01:56 19.4 °C 14.8 °C 1016.8 hPa ESE 3.7 km/h   75 % 0.0 mm 0.0 W/m2 CLR
02:01 19.3 °C 14.8 °C 1016.8 hPa Calm     75 % 0.0 mm 0.0 W/m2 CLR
02:06 19.2 °C 14.7 °C 1016.8 hPa Calm     75 % 0.0 mm 0.0 W/m2 CLR
02:11 19.2 °C 14.8 °C 1016.8 hPa Calm     76 % 0.0 mm 0.0 W/m2 CLR
02:16 19.2 °C 14.8 °C 1016.8 hPa Calm     76 % 0.0 mm 0.0 W/m2 CLR
02:21 19.0 °C 14.3 °C 1016.8 hPa Calm     74 % 0.0 mm 0.0 W/m2 CLR
02:26 18.8 °C 14.3 °C 1016.8 hPa Calm     75 % 0.0 mm 0.0 W/m2 CLR
02:31 18.7 °C 14.4 °C 1016.8 hPa Calm     76 % 0.0 mm 0.0 W/m2 CLR
02:36 18.6 °C 14.1 °C 1016.8 hPa Calm     75 % 0.0 mm 0.0 W/m2 CLR
02:41 18.4 °C 14.1 °C 1016.8 hPa Calm     76 % 0.0 mm 0.0 W/m2 CLR
02:46 18.3 °C 14.0 °C 1016.5 hPa Calm     76 % 0.0 mm 0.0 W/m2 CLR
02:51 18.1 °C 13.9 °C 1016.5 hPa Calm     77 % 0.0 mm 0.0 W/m2 CLR
02:56 17.9 °C 14.0 °C 1016.5 hPa Calm     78 % 0.0 mm 0.0 W/m2 CLR
03:01 17.8 °C 13.9 °C 1016.5 hPa Calm     78 % 0.0 mm 0.0 W/m2 CLR
03:06 17.7 °C 14.1 °C 1016.5 hPa Calm     79 % 0.0 mm 0.0 W/m2 CLR
03:11 17.7 °C 14.0 °C 1016.5 hPa Calm     79 % 0.0 mm 0.0 W/m2 CLR
03:16 17.6 °C 13.7 °C 1016.5 hPa Calm     78 % 0.0 mm 0.0 W/m2 CLR
03:21 17.5 °C 14.0 °C 1016.5 hPa Calm     80 % 0.0 mm 0.0 W/m2 CLR
03:26 17.4 °C 13.9 °C 1016.5 hPa Calm     80 % 0.0 mm 0.0 W/m2 CLR
03:31 17.4 °C 13.9 °C 1016.5 hPa Calm     80 % 0.0 mm 0.0 W/m2 CLR
03:36 17.3 °C 13.8 °C 1016.5 hPa Calm     80 % 0.0 mm 0.0 W/m2 CLR
03:41 17.2 °C 13.7 °C 1016.5 hPa Calm     80 % 0.0 mm 0.0 W/m2 CLR
03:46 17.1 °C 13.8 °C 1016.5 hPa Calm     81 % 0.0 mm 0.0 W/m2 CLR
03:51 17.0 °C 13.7 °C 1016.5 hPa Calm     81 % 0.0 mm 0.0 W/m2 CLR
03:56 16.9 °C 13.7 °C 1016.5 hPa Calm     81 % 0.0 mm 0.0 W/m2 CLR
04:01 16.8 °C 13.7 °C 1016.5 hPa Calm     82 % 0.0 mm 0.0 W/m2 CLR
04:06 16.8 °C 13.7 °C 1016.5 hPa Calm     82 % 0.0 mm 0.0 W/m2 CLR
04:11 16.7 °C 13.6 °C 1016.5 hPa Calm     82 % 0.0 mm 0.0 W/m2 CLR
04:16 16.6 °C 13.5 °C 1016.5 hPa Calm     82 % 0.0 mm 0.0 W/m2 CLR
04:21 16.7 °C 13.8 °C 1016.5 hPa Calm     83 % 0.0 mm 0.0 W/m2 CLR
04:26 16.6 °C 13.5 °C 1016.5 hPa Calm     82 % 0.0 mm 0.0 W/m2 CLR
04:31 16.6 °C 13.7 °C 1016.5 hPa Calm     83 % 0.0 mm 0.0 W/m2 CLR
04:36 16.6 °C 13.7 °C 1016.5 hPa Calm     83 % 0.0 mm 0.0 W/m2 CLR
04:41 16.7 °C 13.8 °C 1016.5 hPa Calm     83 % 0.0 mm 0.0 W/m2 CLR
04:46 16.6 °C 13.4 °C 1016.5 hPa Calm     82 % 0.0 mm 0.0 W/m2 CLR
04:52 16.4 °C 13.3 °C 1016.5 hPa Calm     82 % 0.0 mm 0.0 W/m2 CLR
04:56 16.3 °C 13.4 °C 1016.5 hPa Calm     83 % 0.0 mm 0.0 W/m2 CLR
05:01 16.3 °C 13.6 °C 1016.5 hPa Calm     84 % 0.0 mm 0.0 W/m2 CLR
05:07 16.3 °C 13.6 °C 1016.5 hPa Calm     84 % 0.0 mm 0.0 W/m2 CLR
05:12 16.3 °C 13.6 °C 1016.5 hPa Calm     84 % 0.0 mm 0.0 W/m2 CLR
05:17 16.2 °C 13.3 °C 1016.5 hPa Calm     83 % 0.0 mm 0.0 W/m2 CLR
05:22 16.1 °C 13.3 °C 1016.5 hPa Calm     84 % 0.0 mm 0.0 W/m2 CLR
05:27 16.1 °C 13.4 °C 1016.5 hPa Calm     84 % 0.0 mm 0.0 W/m2 CLR
05:32 16.2 °C 13.5 °C 1016.5 hPa Calm     84 % 0.0 mm 0.0 W/m2 CLR
05:37 16.2 °C 13.5 °C 1016.5 hPa Calm     84 % 0.0 mm 0.0 W/m2 CLR
05:42 16.2 °C 13.7 °C 1016.5 hPa Calm     85 % 0.0 mm 0.0 W/m2 CLR
05:47 16.3 °C 13.6 °C 1016.5 hPa Calm     84 % 0.0 mm 0.0 W/m2 CLR
05:52 16.2 °C 13.4 °C 1016.5 hPa Calm     84 % 0.0 mm 0.0 W/m2 CLR
05:57 16.1 °C 13.6 °C 1016.5 hPa Calm     85 % 0.0 mm 0.0 W/m2 CLR
06:02 16.1 °C 13.6 °C 1016.5 hPa Calm     85 % 0.0 mm 0.0 W/m2 CLR
06:07 16.1 °C 13.6 °C 1016.5 hPa Calm     85 % 0.0 mm 0.0 W/m2 CLR
06:12 16.1 °C 13.8 °C 1016.5 hPa Calm     86 % 0.0 mm 0.0 W/m2 CLR
06:17 16.1 °C 13.7 °C 1016.5 hPa Calm     86 % 0.0 mm 0.0 W/m2 CLR
06:22 16.1 °C 13.7 °C 1016.5 hPa Calm     86 % 0.0 mm 0.0 W/m2 OVC
06:27 16.1 °C 13.7 °C 1016.5 hPa Calm     86 % 0.0 mm 0.0 W/m2 OVC
06:32 16.0 °C 13.7 °C 1016.5 hPa Calm     86 % 0.0 mm 5.0 W/m2 OVC
06:37 15.9 °C 13.6 °C 1016.5 hPa Calm     86 % 0.0 mm 9.0 W/m2 BKN
06:42 15.9 °C 13.6 °C 1016.5 hPa Calm     86 % 0.0 mm 12.0 W/m2 BKN
06:47 15.9 °C 13.7 °C 1016.5 hPa Calm     87 % 0.0 mm 19.0 W/m2 BKN
06:52 15.8 °C 13.7 °C 1016.5 hPa Calm     87 % 0.0 mm 23.0 W/m2 BKN
06:57 15.8 °C 13.7 °C 1016.5 hPa Calm     87 % 0.0 mm 26.0 W/m2 BKN
07:02 15.8 °C 13.7 °C 1016.8 hPa Calm     87 % 0.0 mm 28.0 W/m2 BKN
07:07 15.8 °C 13.7 °C 1016.8 hPa Calm     87 % 0.0 mm 35.0 W/m2 BKN
07:12 15.9 °C 13.8 °C 1016.5 hPa Calm     87 % 0.0 mm 40.0 W/m2 BKN
07:17 16.1 °C 13.7 °C 1016.8 hPa Calm     86 % 0.0 mm 49.0 W/m2 SCT
07:22 16.1 °C 13.7 °C 1016.8 hPa Calm     86 % 0.0 mm 58.0 W/m2 SCT
07:27 16.2 °C 13.8 °C 1016.8 hPa Calm     86 % 0.0 mm 62.0 W/m2 SCT
07:32 16.3 °C 13.9 °C 1016.8 hPa Calm     86 % 0.0 mm 62.0 W/m2 SCT
07:37 16.4 °C 14.1 °C 1016.8 hPa Calm     86 % 0.0 mm 65.0 W/m2 SCT
07:42 16.4 °C 14.1 °C 1016.8 hPa Calm     86 % 0.0 mm 74.0 W/m2 FEW
07:47 16.6 °C 14.2 °C 1017.2 hPa Calm     86 % 0.0 mm 93.0 W/m2 FEW
07:52 16.8 °C 14.4 °C 1017.2 hPa Calm     86 % 0.0 mm 151.0 W/m2 CLR
07:57 17.0 °C 14.7 °C 1017.2 hPa Calm     86 % 0.0 mm 139.0 W/m2 CLR
08:02 17.3 °C 14.7 °C 1017.2 hPa Calm     85 % 0.0 mm 204.0 W/m2 CLR
08:07 17.7 °C 15.2 °C 1017.2 hPa Calm     85 % 0.0 mm 244.0 W/m2 CLR
08:12 18.2 °C 15.2 °C 1017.2 hPa Calm     83 % 0.0 mm 246.0 W/m2 CLR
08:17 18.4 °C 15.1 °C 1017.2 hPa Calm     81 % 0.0 mm 158.0 W/m2 CLR
08:22 18.7 °C 15.4 °C 1017.2 hPa Calm     81 % 0.0 mm 283.0 W/m2 CLR
08:27 19.2 °C 15.6 °C 1017.2 hPa Calm     80 % 0.0 mm 302.0 W/m2 CLR
08:32 19.8 °C 15.8 °C 1017.2 hPa Calm     78 % 0.0 mm 276.0 W/m2 CLR
08:37 20.2 °C 15.8 °C 1017.2 hPa Calm     76 % 0.0 mm 176.0 W/m2 CLR
08:42 20.3 °C 15.6 °C 1017.2 hPa Calm     74 % 0.0 mm 142.0 W/m2 CLR
08:47 20.4 °C 15.8 °C 1017.5 hPa Calm     75 % 0.0 mm 144.0 W/m2 CLR
08:52 20.5 °C 15.7 °C 1017.5 hPa Calm     74 % 0.0 mm 281.0 W/m2 CLR
08:57 20.6 °C 15.6 °C 1017.5 hPa Calm     73 % 0.0 mm 392.0 W/m2 CLR
09:02 20.8 °C 15.8 °C 1017.5 hPa Calm     73 % 0.0 mm 462.0 W/m2 CLR
09:07 21.2 °C 15.9 °C 1017.5 hPa Calm     72 % 0.0 mm 506.0 W/m2 CLR
09:12 21.3 °C 15.8 °C 1017.5 hPa Calm     71 % 0.0 mm 397.0 W/m2 CLR
09:17 21.6 °C 15.9 °C 1017.5 hPa Calm     70 % 0.0 mm 443.0 W/m2 CLR
09:22 21.7 °C 15.8 °C 1017.5 hPa Calm     69 % 0.0 mm 146.0 W/m2 CLR
09:27 21.7 °C 15.8 °C 1017.5 hPa Calm     69 % 0.0 mm 88.0 W/m2 CLR
09:37 21.6 °C 16.1 °C 1017.2 hPa Calm     71 % 0.0 mm 56.0 W/m2 FEW
09:42 21.4 °C 16.4 °C 1017.2 hPa Calm     73 % 0.5 mm 60.0 W/m2 RA
09:47 21.2 °C 16.8 °C 1017.2 hPa Calm     76 % 0.5 mm 70.0 W/m2 RA
09:52 21.0 °C 16.6 °C 1017.2 hPa Calm     76 % 0.8 mm 88.0 W/m2 RA
09:57 20.9 °C 17.2 °C 1017.2 hPa Calm     79 % 0.8 mm 104.0 W/m2 CLR
10:02 20.8 °C 17.4 °C 1017.5 hPa NW 18.5 km/h 18.5 km/h 81 % 0.8 mm 128.0 W/m2 CLR
10:07 20.5 °C 16.9 °C 1017.5 hPa North 9.3 km/h 9.3 km/h 80 % 0.8 mm 153.0 W/m2 CLR
10:12 20.6 °C 16.8 °C 1017.2 hPa Calm     79 % 0.8 mm 176.0 W/m2 CLR
10:17 20.7 °C 16.9 °C 1017.2 hPa Calm     79 % 0.8 mm 193.0 W/m2 CLR
10:22 21.0 °C 17.4 °C 1017.2 hPa NW 8.0 km/h 8.0 km/h 80 % 0.8 mm 216.0 W/m2 CLR
10:27 21.2 °C 17.2 °C 1017.2 hPa Calm     78 % 0.8 mm 241.0 W/m2 CLR
10:32 21.3 °C 17.6 °C 1017.2 hPa Calm     79 % 0.8 mm 271.0 W/m2 CLR
10:37 21.6 °C 17.2 °C 1017.2 hPa Calm     76 % 0.8 mm 288.0 W/m2 CLR
10:42 21.8 °C 17.4 °C 1017.2 hPa Calm     76 % 0.5 mm 301.0 W/m2 CLR
10:47 21.9 °C 16.6 °C 1017.2 hPa Calm     72 % 0.3 mm 322.0 W/m2 CLR
10:52 21.9 °C 16.8 °C 1017.2 hPa Calm     73 % 0.0 mm 339.0 W/m2 CLR
10:57 22.1 °C 17.2 °C 1017.2 hPa Calm     74 % 0.0 mm 320.0 W/m2 CLR
11:02 22.3 °C 17.0 °C 1017.2 hPa Calm     72 % 0.0 mm 334.0 W/m2 CLR
11:07 22.4 °C 16.5 °C 1017.2 hPa Calm     69 % 0.0 mm 353.0 W/m2 CLR
11:12 22.6 °C 16.6 °C 1017.2 hPa Calm     69 % 0.0 mm 388.0 W/m2 CLR
11:17 22.7 °C 16.7 °C 1016.8 hPa Calm     69 % 0.0 mm 603.0 W/m2 CLR
11:22 22.9 °C 16.9 °C 1017.2 hPa Calm     69 % 0.0 mm 482.0 W/m2 CLR
11:27 23.1 °C 16.4 °C 1016.8 hPa Calm     66 % 0.0 mm 448.0 W/m2 CLR
11:32 23.3 °C 16.6 °C 1017.2 hPa Calm     66 % 0.0 mm 417.0 W/m2 CLR
11:37 23.5 °C 16.3 °C 1016.8 hPa Calm     64 % 0.0 mm 476.0 W/m2 CLR
11:42 23.9 °C 16.9 °C 1016.8 hPa Calm     65 % 0.0 mm 466.0 W/m2 CLR
11:47 24.3 °C 17.3 °C 1016.8 hPa Calm     65 % 0.0 mm 420.0 W/m2 CLR
11:52 24.7 °C 17.2 °C 1016.8 hPa Calm     63 % 0.0 mm 432.0 W/m2 CLR
11:57 25.1 °C 17.1 °C 1016.8 hPa Calm     61 % 0.0 mm 916.0 W/m2 CLR
12:02 25.4 °C 16.6 °C 1016.8 hPa ENE 3.7 km/h   58 % 0.0 mm 937.0 W/m2 CLR
12:07 25.7 °C 16.3 °C 1016.5 hPa SSE 3.7 km/h 3.7 km/h 56 % 0.0 mm 805.0 W/m2 CLR
12:12 25.8 °C 16.7 °C 1016.5 hPa SE 7.4 km/h 7.4 km/h 57 % 0.0 mm 805.0 W/m2 CLR
12:17 25.9 °C 17.1 °C 1016.5 hPa ESE 3.7 km/h   58 % 0.0 mm 432.0 W/m2 CLR
12:18 25.9 °C 17.1 °C 1016.5 hPa ESE 3.7 km/h   58 % 0.0 mm 432.0 W/m2 CLR
12:23 26.4 °C 16.9 °C 1016.5 hPa East 5.6 km/h 5.6 km/h 56 % 0.0 mm 932.0 W/m2 CLR
12:28 26.7 °C 16.9 °C 1016.5 hPa Calm     55 % 0.0 mm 976.0 W/m2 CLR
12:33 26.8 °C 16.4 °C 1016.5 hPa SE 5.6 km/h   53 % 0.0 mm 279.0 W/m2 CLR
12:38 26.8 °C 16.7 °C 1016.5 hPa Calm     54 % 0.0 mm 362.0 W/m2 CLR
12:43 26.8 °C 16.4 °C 1016.1 hPa Calm     53 % 0.0 mm 327.0 W/m2 CLR
12:48 26.7 °C 16.3 °C 1016.1 hPa Calm     53 % 0.0 mm 415.0 W/m2 CLR
12:53 27.1 °C 16.9 °C 1016.1 hPa Calm     54 % 0.0 mm 628.0 W/m2 CLR
12:58 27.7 °C 16.9 °C 1016.1 hPa Calm   0.2 km/h 52 % 0.0 mm 373.0 W/m2 CLR
13:03 27.9 °C 16.5 °C 1016.1 hPa Calm     50 % 0.0 mm 327.0 W/m2 CLR
13:08 28.1 °C 16.7 °C 1016.1 hPa Calm     50 % 0.0 mm 649.0 W/m2 CLR
13:13 28.2 °C 16.8 °C 1016.1 hPa Calm     50 % 0.0 mm 1025.0 W/m2 CLR
13:18 28.4 °C 16.7 °C 1015.8 hPa Calm     49 % 0.0 mm 976.0 W/m2 CLR
13:23 28.8 °C 15.4 °C 1015.8 hPa Calm     44 % 0.0 mm 784.0 W/m2 CLR
13:28 29.1 °C 15.9 °C 1015.8 hPa Calm     45 % 0.0 mm 810.0 W/m2 CLR
13:33 29.3 °C 16.4 °C 1015.8 hPa ESE 5.6 km/h 5.6 km/h 46 % 0.0 mm 715.0 W/m2 CLR
13:38 29.2 °C 16.1 °C 1015.8 hPa North 1.9 km/h   45 % 0.0 mm 654.0 W/m2 CLR
13:43 29.2 °C 16.1 °C 1015.5 hPa NE 3.2 km/h   45 % 0.0 mm 923.0 W/m2 CLR
13:48 29.6 °C 16.4 °C 1015.5 hPa ENE 7.4 km/h 7.4 km/h 45 % 0.0 mm 926.0 W/m2 CLR
13:53 30.0 °C 16.8 °C 1015.5 hPa ENE 3.7 km/h 3.7 km/h 45 % 0.0 mm 907.0 W/m2 CLR
13:58 30.3 °C 16.7 °C 1015.5 hPa ENE 11.1 km/h 11.1 km/h 44 % 0.0 mm 911.0 W/m2 CLR
14:03 30.3 °C 16.7 °C 1015.1 hPa ENE 5.6 km/h 5.6 km/h 44 % 0.0 mm 905.0 W/m2 CLR
14:08 30.5 °C 16.5 °C 1015.1 hPa NE 3.7 km/h 3.7 km/h 43 % 0.0 mm 905.0 W/m2 CLR
14:13 30.5 °C 15.8 °C 1015.1 hPa East 5.6 km/h 5.6 km/h 41 % 0.0 mm 905.0 W/m2 CLR
14:18 30.5 °C 15.8 °C 1015.1 hPa East 14.5 km/h 14.5 km/h 41 % 0.0 mm 902.0 W/m2 CLR
14:23 30.6 °C 15.0 °C 1014.8 hPa ENE 9.3 km/h 9.3 km/h 39 % 0.0 mm 905.0 W/m2 CLR
14:28 30.7 °C 15.5 °C 1014.8 hPa Calm     40 % 0.0 mm 904.0 W/m2 CLR
14:33 30.8 °C 16.1 °C 1014.8 hPa ENE 1.9 km/h 1.9 km/h 41 % 0.0 mm 893.0 W/m2 CLR
14:38 31.3 °C 15.7 °C 1014.4 hPa NE 1.9 km/h   39 % 0.0 mm 886.0 W/m2 CLR
14:43 31.6 °C 15.2 °C 1014.4 hPa ESE 13.0 km/h 13.0 km/h 37 % 0.0 mm 889.0 W/m2 CLR
14:48 31.3 °C 14.8 °C 1014.4 hPa ESE 7.4 km/h 7.4 km/h 37 % 0.0 mm 891.0 W/m2 CLR
14:53 31.2 °C 14.8 °C 1014.4 hPa East 14.5 km/h 14.5 km/h 37 % 0.0 mm 886.0 W/m2 CLR
14:58 31.3 °C 15.3 °C 1014.4 hPa North 8.0 km/h 8.0 km/h 38 % 0.0 mm 879.0 W/m2 CLR
15:03 31.5 °C 14.2 °C 1014.4 hPa ENE 7.4 km/h 7.4 km/h 35 % 0.0 mm 870.0 W/m2 CLR
15:08 31.5 °C 14.2 °C 1014.1 hPa NE 5.6 km/h 5.6 km/h 35 % 0.0 mm 877.0 W/m2 CLR
15:13 31.4 °C 13.7 °C 1014.1 hPa SE 9.3 km/h 9.3 km/h 34 % 0.0 mm 886.0 W/m2 CLR
15:18 31.6 °C 13.8 °C 1014.1 hPa SSE 3.7 km/h   34 % 0.0 mm 881.0 W/m2 CLR
15:23 31.9 °C 14.1 °C 1013.8 hPa ENE 7.4 km/h 7.4 km/h 34 % 0.0 mm 882.0 W/m2 CLR
15:28 32.2 °C 14.4 °C 1013.8 hPa ENE 20.4 km/h 20.4 km/h 34 % 0.0 mm 872.0 W/m2 CLR
15:33 32.3 °C 14.4 °C 1013.8 hPa ENE 9.3 km/h 9.3 km/h 34 % 0.0 mm 868.0 W/m2 CLR
15:38 32.5 °C 14.6 °C 1013.8 hPa NE 16.1 km/h 16.1 km/h 34 % 0.0 mm 849.0 W/m2 CLR
15:43 32.3 °C 14.4 °C 1013.8 hPa Calm     34 % 0.0 mm 921.0 W/m2 CLR
15:48 32.5 °C 14.6 °C 1013.8 hPa ENE 8.0 km/h 8.0 km/h 34 % 0.0 mm 909.0 W/m2 CLR
15:53 32.4 °C 14.5 °C 1013.8 hPa SSE 8.0 km/h 8.0 km/h 34 % 0.0 mm 860.0 W/m2 CLR
15:58 32.1 °C 14.3 °C 1013.8 hPa ENE 5.6 km/h 5.6 km/h 34 % 0.0 mm 861.0 W/m2 CLR
16:03 32.1 °C 14.7 °C 1013.8 hPa SSE 5.6 km/h 5.6 km/h 35 % 0.0 mm 867.0 W/m2 CLR
16:08 32.0 °C 14.6 °C 1013.8 hPa East 6.4 km/h 6.4 km/h 35 % 0.0 mm 867.0 W/m2 CLR
16:13 31.9 °C 15.0 °C 1013.8 hPa ESE 9.3 km/h 9.3 km/h 36 % 0.0 mm 526.0 W/m2 CLR
16:18 31.3 °C 14.9 °C 1013.8 hPa ESE 18.5 km/h 18.5 km/h 37 % 0.0 mm 195.0 W/m2 CLR
16:23 30.4 °C 15.3 °C 1013.8 hPa SSW 18.5 km/h 18.5 km/h 40 % 0.0 mm 167.0 W/m2 CLR
16:28 29.9 °C 16.3 °C 1014.1 hPa SSE 35.2 km/h 35.2 km/h 44 % 0.0 mm 156.0 W/m2 CLR
16:33 29.0 °C 16.2 °C 1014.1 hPa SE 25.9 km/h 25.9 km/h 46 % 0.0 mm 139.0 W/m2 CLR
16:38 28.2 °C 14.8 °C 1014.4 hPa SE 37.0 km/h 37.0 km/h 44 % 0.0 mm 135.0 W/m2 CLR
16:43 27.0 °C 14.7 °C 1014.4 hPa SE 29.6 km/h 29.6 km/h 47 % 0.0 mm 102.0 W/m2 CLR
16:48 26.6 °C 14.7 °C 1014.4 hPa SSE 18.5 km/h 18.5 km/h 48 % 0.0 mm 76.0 W/m2 CLR
16:53 26.9 °C 14.6 °C 1014.1 hPa South 14.5 km/h 14.5 km/h 47 % 0.0 mm 63.0 W/m2 FEW
16:58 27.2 °C 16.2 °C 1014.4 hPa SE 8.0 km/h 8.0 km/h 51 % 0.3 mm 74.0 W/m2 RA
17:03 26.2 °C 16.2 °C 1014.1 hPa ENE 9.7 km/h 9.7 km/h 54 % 1.0 mm 95.0 W/m2 RA
17:08 24.9 °C 16.7 °C 1014.1 hPa ENE 8.0 km/h 8.0 km/h 60 % 1.5 mm 74.0 W/m2 RA
17:13 24.6 °C 17.1 °C 1014.4 hPa ENE 5.6 km/h 5.6 km/h 63 % 1.5 mm 53.0 W/m2 FEW
17:18 24.4 °C 16.9 °C 1014.4 hPa ENE 9.3 km/h 9.3 km/h 63 % 1.5 mm 44.0 W/m2 SCT
17:23 24.4 °C 15.8 °C 1014.4 hPa ENE 13.0 km/h 13.0 km/h 59 % 1.5 mm 54.0 W/m2 SCT
17:28 24.4 °C 16.4 °C 1014.4 hPa ENE 11.1 km/h 11.1 km/h 61 % 1.5 mm 63.0 W/m2 SCT
17:33 24.2 °C 16.2 °C 1014.1 hPa Calm     61 % 1.5 mm 70.0 W/m2 SCT
17:38 24.1 °C 16.6 °C 1014.4 hPa SSE 20.9 km/h 20.9 km/h 63 % 1.5 mm 88.0 W/m2 FEW
17:44 24.6 °C 17.1 °C 1014.1 hPa ENE 20.4 km/h 20.4 km/h 63 % 1.5 mm 116.0 W/m2 CLR
17:49 24.9 °C 17.3 °C 1014.4 hPa SSE 16.7 km/h 16.7 km/h 63 % 1.5 mm 206.0 W/m2 CLR
17:54 25.1 °C 17.8 °C 1014.4 hPa ENE 14.8 km/h 14.8 km/h 64 % 1.5 mm 243.0 W/m2 CLR
17:59 25.3 °C 17.8 °C 1014.4 hPa SSW 18.5 km/h 18.5 km/h 63 % 1.3 mm 508.0 W/m2 CLR
18:04 25.3 °C 17.3 °C 1014.4 hPa ENE 25.9 km/h 25.9 km/h 61 % 0.5 mm 385.0 W/m2 CLR
18:09 25.4 °C 16.5 °C 1014.4 hPa South 22.2 km/h 22.2 km/h 58 % 0.0 mm 445.0 W/m2 CLR
18:14 25.3 °C 16.4 °C 1014.1 hPa South 14.8 km/h 14.8 km/h 58 % 0.0 mm 359.0 W/m2 CLR
18:19 25.1 °C 16.6 °C 1014.1 hPa SSW 9.3 km/h 9.3 km/h 59 % 0.0 mm 359.0 W/m2 CLR
18:24 25.2 °C 15.8 °C 1014.1 hPa South 18.5 km/h 18.5 km/h 56 % 0.0 mm 359.0 W/m2 CLR
18:29 25.4 °C 15.4 °C 1013.8 hPa South 14.8 km/h 14.8 km/h 54 % 0.0 mm 155.0 W/m2 CLR
18:34 25.8 °C 14.9 °C 1013.8 hPa SSW 17.7 km/h 17.7 km/h 51 % 0.0 mm 188.0 W/m2 CLR
18:39 26.4 °C 14.2 °C 1013.8 hPa SW 14.8 km/h 14.8 km/h 47 % 0.0 mm 142.0 W/m2 CLR
18:44 26.8 °C 13.5 °C 1013.8 hPa South 29.6 km/h 29.6 km/h 44 % 0.0 mm 130.0 W/m2 CLR
18:49 27.0 °C 13.3 °C 1013.8 hPa SSW 29.6 km/h 29.6 km/h 43 % 0.0 mm 132.0 W/m2 CLR
18:54 26.8 °C 13.5 °C 1013.8 hPa South 38.9 km/h 38.9 km/h 44 % 0.0 mm 125.0 W/m2 CLR
18:59 26.4 °C 13.8 °C 1013.8 hPa SSW 29.6 km/h 29.6 km/h 46 % 0.0 mm 127.0 W/m2 CLR
19:04 26.1 °C 14.5 °C 1013.4 hPa SSW 19.3 km/h 19.3 km/h 49 % 0.0 mm 107.0 W/m2 CLR
19:09 25.9 °C 14.7 °C 1013.4 hPa South 27.8 km/h 27.8 km/h 50 % 0.0 mm 111.0 W/m2 CLR
19:14 25.8 °C 14.9 °C 1013.4 hPa SSW 27.8 km/h 27.8 km/h 51 % 0.0 mm 132.0 W/m2 CLR
19:19 25.9 °C 14.7 °C 1013.4 hPa South 20.9 km/h 20.9 km/h 50 % 0.0 mm 185.0 W/m2 CLR
19:24 26.2 °C 14.6 °C 1013.4 hPa SSW 33.3 km/h 33.3 km/h 49 % 0.0 mm 146.0 W/m2 CLR
19:29 26.3 °C 15.1 °C 1013.4 hPa SSW 35.4 km/h 35.4 km/h 50 % 0.0 mm 132.0 W/m2 CLR
19:34 26.3 °C 16.2 °C 1013.4 hPa SSW 20.4 km/h 20.4 km/h 54 % 0.0 mm 113.0 W/m2 CLR
19:39 26.3 °C 16.0 °C 1013.8 hPa SSW 18.5 km/h 18.5 km/h 53 % 0.0 mm 70.0 W/m2 CLR
19:44 26.4 °C 16.3 °C 1013.8 hPa SSW 13.0 km/h 13.0 km/h 54 % 0.0 mm 60.0 W/m2 FEW
19:49 26.3 °C 16.0 °C 1014.1 hPa WSW 5.6 km/h 5.6 km/h 53 % 0.0 mm 40.0 W/m2 SCT
19:54 26.5 °C 15.2 °C 1015.1 hPa WNW 14.8 km/h 14.8 km/h 50 % 0.0 mm 21.0 W/m2 BKN
19:59 26.5 °C 15.6 °C 1015.5 hPa NNW 33.3 km/h 33.3 km/h 51 % 0.0 mm 23.0 W/m2 BKN
20:04 25.3 °C 16.4 °C 1015.8 hPa North 27.8 km/h 27.8 km/h 58 % 0.3 mm 33.0 W/m2 RA
20:09 24.4 °C 16.4 °C 1015.8 hPa NNW 29.6 km/h 29.6 km/h 61 % 0.3 mm 32.0 W/m2 BKN
20:14 23.9 °C 16.4 °C 1015.8 hPa NNW 31.5 km/h 31.5 km/h 63 % 0.3 mm 30.0 W/m2 BKN
20:19 23.6 °C 16.4 °C 1016.1 hPa North 20.4 km/h 20.4 km/h 64 % 0.3 mm 25.0 W/m2 BKN
20:24 23.5 °C 16.3 °C 1016.1 hPa North 22.2 km/h 22.2 km/h 64 % 0.3 mm 19.0 W/m2 BKN
20:29 23.3 °C 16.4 °C 1016.1 hPa North 20.9 km/h 20.9 km/h 65 % 0.3 mm 16.0 W/m2 BKN
20:34 23.2 °C 16.3 °C 1016.1 hPa North 22.2 km/h 22.2 km/h 65 % 0.3 mm 9.0 W/m2 BKN
20:39 23.1 °C 16.4 °C 1016.1 hPa NNW 18.5 km/h 18.5 km/h 66 % 0.3 mm 5.0 W/m2 OVC
20:44 23.1 °C 16.6 °C 1016.1 hPa NW 16.7 km/h 16.7 km/h 67 % 0.3 mm 0.0 W/m2 OVC
20:49 22.8 °C 16.8 °C 1016.1 hPa NW 11.3 km/h 11.3 km/h 69 % 0.3 mm 0.0 W/m2 OVC
20:54 22.6 °C 17.1 °C 1016.5 hPa Calm     71 % 0.3 mm 0.0 W/m2 OVC
20:59 22.3 °C 17.0 °C 1016.5 hPa North 4.8 km/h 4.8 km/h 72 % 0.5 mm 0.0 W/m2 RA
21:04 22.1 °C 17.2 °C 1016.5 hPa NW 7.4 km/h 7.4 km/h 74 % 0.5 mm 0.0 W/m2 RA
21:09 21.6 °C 17.2 °C 1016.5 hPa NW 13.0 km/h 13.0 km/h 76 % 0.8 mm 0.0 W/m2 RA
21:14 21.3 °C 17.5 °C 1016.5 hPa Calm     79 % 1.0 mm 0.0 W/m2 RA
21:19 20.9 °C 17.6 °C 1016.5 hPa Calm     81 % 1.3 mm 0.0 W/m2 RA
21:24 20.7 °C 17.6 °C 1016.5 hPa Calm     82 % 1.3 mm 0.0 W/m2
21:29 20.4 °C 17.7 °C 1016.8 hPa SW 8.0 km/h 8.0 km/h 84 % 1.5 mm 0.0 W/m2 RA
21:34 20.3 °C 17.8 °C 1016.8 hPa WSW 4.8 km/h 4.8 km/h 86 % 1.5 mm 0.0 W/m2 RA
21:39 20.1 °C 17.9 °C 1016.8 hPa Calm     87 % 1.5 mm 0.0 W/m2 CLR
21:44 20.1 °C 17.8 °C 1016.8 hPa Calm     87 % 1.5 mm 0.0 W/m2 CLR
21:49 20.0 °C 17.8 °C 1016.8 hPa Calm     87 % 1.5 mm 0.0 W/m2 CLR
21:54 20.0 °C 17.9 °C 1016.8 hPa WSW 13.0 km/h 13.0 km/h 88 % 1.5 mm 0.0 W/m2 CLR
21:59 19.9 °C 17.8 °C 1016.5 hPa SSW 7.4 km/h 7.4 km/h 88 % 1.5 mm 0.0 W/m2 RA
22:04 19.9 °C 17.8 °C 1016.5 hPa SSW 6.4 km/h 6.4 km/h 88 % 1.5 mm 0.0 W/m2 RA
22:09 19.8 °C 17.8 °C 1016.1 hPa Calm     88 % 1.3 mm 0.0 W/m2
22:14 19.8 °C 17.7 °C 1016.1 hPa South 3.7 km/h   88 % 1.3 mm 0.0 W/m2 RA
22:19 19.8 °C 17.7 °C 1016.1 hPa SSE 9.3 km/h 9.3 km/h 88 % 1.3 mm 0.0 W/m2 RA
22:24 19.8 °C 17.7 °C 1016.1 hPa SE 9.3 km/h 9.3 km/h 88 % 1.3 mm 0.0 W/m2
22:29 19.7 °C 17.8 °C 1016.1 hPa SSW 6.4 km/h 6.4 km/h 89 % 1.5 mm 0.0 W/m2 RA
22:34 19.7 °C 17.8 °C 1015.8 hPa South 9.3 km/h 9.3 km/h 89 % 1.5 mm 0.0 W/m2 RA
22:39 19.6 °C 17.6 °C 1015.8 hPa SSW 7.4 km/h   88 % 1.5 mm 0.0 W/m2 CLR
22:41 19.6 °C 17.6 °C 1015.8 hPa South 1.9 km/h 1.9 km/h 88 % 1.5 mm 0.0 W/m2 CLR
22:46 19.7 °C 17.6 °C 1016.1 hPa SSW 9.7 km/h 9.7 km/h 88 % 1.5 mm 0.0 W/m2 CLR
22:51 19.8 °C 17.6 °C 1016.1 hPa West 9.3 km/h 9.3 km/h 87 % 1.5 mm 0.0 W/m2 CLR
22:56 19.8 °C 17.6 °C 1016.5 hPa Calm     87 % 1.5 mm 0.0 W/m2 RA
23:01 19.8 °C 17.4 °C 1016.5 hPa SW 5.6 km/h 5.6 km/h 86 % 1.5 mm 0.0 W/m2
23:06 20.0 °C 17.4 °C 1016.8 hPa SW 7.4 km/h 7.4 km/h 85 % 1.3 mm 0.0 W/m2 CLR
23:11 20.0 °C 17.4 °C 1016.8 hPa Calm     85 % 1.5 mm 0.0 W/m2 RA
23:16 19.9 °C 17.3 °C 1016.8 hPa West 7.4 km/h 7.4 km/h 85 % 1.3 mm 0.0 W/m2
23:21 19.9 °C 17.3 °C 1017.2 hPa Calm     85 % 1.0 mm 0.0 W/m2 CLR
23:26 19.7 °C 17.3 °C 1017.5 hPa NE 4.8 km/h 4.8 km/h 86 % 0.5 mm 0.0 W/m2 CLR
23:31 19.6 °C 17.3 °C 1017.5 hPa North 3.7 km/h   87 % 0.5 mm 0.0 W/m2 RA
23:36 19.4 °C 17.4 °C 1017.5 hPa Calm     88 % 0.5 mm 0.0 W/m2 CLR
23:41 19.4 °C 17.3 °C 1017.2 hPa East 3.2 km/h 3.2 km/h 88 % 0.8 mm 0.0 W/m2 RA
23:46 19.3 °C 17.5 °C 1016.8 hPa ENE 7.4 km/h 7.4 km/h 89 % 1.3 mm 0.0 W/m2 RA
23:51 19.2 °C 17.4 °C 1016.5 hPa Calm     89 % 1.5 mm 0.0 W/m2 RA
23:56 19.2 °C 17.5 °C 1016.1 hPa ESE 9.3 km/h 9.3 km/h 90 % 1.5 mm 0.0 W/m2 CLR
Lo Temps de Massalio
Compliments of Weather Underground - 1.25 mb